Weather in Port-Katon

Russia / Rostov Oblast     46°52′39″N   38°45′14″E
temp.,
°C
wind,
m/s
gust,
m/s
humid.,
%
clouds,
%
prec.,
mm/h
press.,
hPa
HPBL,
m
17 october, sun
sun1700:00+14ene3465100 0.0 101438
03:00+13ne456599 0.0 101471
06:00+13ne4565100 0.0 1014121
09:00+13ne4566100 0.0 1014178
12:00+14ne346067 0.0 1014117
15:00+15nnw115982 0.0 101472
18:00+15nw3356100 0.0 101417
21:00+14nne466433 0.0 101459
18 october, mon
mon1800:00+13nne456591 0.0 101574
03:00+13nne44655 0.0 101580
06:00+12n456725 0.0 1015128
09:00+13nne336688 0.0 1017115
12:00+14n226376 0.0 1017100
15:00+14w336395 0.0 1016106
18:00+14w45695 0.0 101769
21:00+13wnw5673100 0.0 1017108
19 october, tue
tue1900:00+12nw566463 0.0 1018185
03:00+11wnw6763100 0.0 1017348
06:00+11wnw7861100 0.0 1018601
09:00+11wnw6861100 0.0 1018579
12:00+11w6862100 0.0 1018947
15:00+12wnw676096 0.0 10171157
18:00+10wnw897674 0.8 1018813
21:00+9n91078100 3.0 1021983
20 october, wed
wed2000:00+9nw78632 0.4 1022727
03:00+8nnw89615 0.4 1024540
06:00+7nw78675 0.0 1025595
09:00+7nnw77705 0.0 1027655
12:00+8nw56576 0.0 10281284
15:00+9wnw564832 0.0 10271505
18:00+10nw45447 0.0 10281337
21:00+10nw3444100 0.0 1028903
21 october, thu
thu2100:00+9wsw2345100 0.0 1028712
03:00+9sw44565 0.0 1028603
06:00+8ssw5565100 0.0 1028400
09:00+9ssw6668100 0.0 1028356
12:00+10ssw455149 0.0 1027731
15:00+12wsw45447 0.0 1025552
18:00+12sw4650100 0.0 1024460
21:00+11ssw564917 0.0 1023293